Location: Riverview Farm Park
(37.0930°N, 76.5291°W)
Time: 17:38:17
(UTC-04:00)

Tiangong 2 - Visible Passes

Search period start: 17 July 2018 00:00
Search period end: 27 July 2018 00:00
Orbit: 386 x 394 km, 42.8° (Epoch: 17 July)

Date Brightness Start Highest point End Pass type
(mag) Time Alt. Az. Time Alt. Az. Time Alt. Az.
17 Jul 3.0 21:17:39 10° WNW 21:20:30 29° N 21:23:19 10° ENE visible
17 Jul 2.8 22:54:51 10° WNW 22:57:16 32° NNW 22:57:16 32° NNW visible
18 Jul 2.8 21:57:09 10° WNW 22:00:01 29° N 22:01:59 16° ENE visible
18 Jul 4.3 23:33:57 10° WNW 23:34:18 12° WNW 23:34:18 12° WNW visible
19 Jul 3.0 20:59:22 10° WNW 21:02:10 27° N 21:04:58 10° ENE visible
19 Jul 2.0 22:36:17 10° WNW 22:39:01 47° NNW 22:39:01 47° NNW visible
20 Jul 2.3 21:38:38 10° WNW 21:41:38 37° NNE 21:43:43 17° ENE visible
20 Jul 4.0 23:15:29 10° WNW 23:16:02 14° WNW 23:16:02 14° WNW visible
21 Jul 1.1 22:17:43 10° WNW 22:20:45 79° WNW 22:20:45 79° WNW visible
22 Jul 1.5 21:20:02 10° WNW 21:23:11 56° NNE 21:25:29 17° E visible
22 Jul 3.9 22:57:14 10° W 22:57:48 13° W 22:57:48 13° W visible
23 Jul 1.5 21:59:14 10° WNW 22:02:18 45° SSW 22:02:34 43° SSW visible
24 Jul 1.1 21:01:26 10° WNW 21:04:38 82° SSW 21:07:23 13° ESE visible
24 Jul 4.1 22:39:41 10° WSW 22:39:42 10° WSW 22:39:42 10° WSW visible
25 Jul 2.8 21:41:00 10° W 21:43:34 22° SW 21:44:34 19° S visible
26 Jul 2.0 20:42:57 10° WNW 20:45:58 40° SSW 20:48:59 10° SE visible
